Aeroporto :
LOGIN :

Iscrizione | Disclaimer

   EN    FR    IT 

 










Sommario :    VFR   VFR Marginale   IFR   IFR Intensivo   IFR Molto Intensivo
Visibilità : 
Base nubi : 
>= 8 km
>= 3000ft
5 / 8 km
1000 / 3000 ft
1500m / 5 km
500 / 1000 ft
800 / 1500m
200 / 500 ft
< 800m
< 200 ft
Simboli :   Temporali  Nebbia  Neve Forte  Precipitazioni Forti  Vento > 20 kt
SIGMETs :   Varie  Temporali  Ghiacco  Turbolenza  Onda orograficha  Ceneri Vulcaniche







- Altitudine del aeroporto : 1989 ft
- Codice IATA : KLV


LKKV - Karlovy Vary

ULTIMO METAR :
  • 261900Z 25004KT 220V280 CAVOK 17/06 Q1013

METARs OBSOLETI :
  • 261830Z 25004KT 220V280 CAVOK 18/06 Q1013
  • 261800Z 26006KT 230V290 CAVOK 18/06 Q1013
  • 261730Z 26007KT CAVOK 19/06 Q1013
  • 261700Z 26007KT 220V280 CAVOK 19/06 Q1013

TAF TAF LKKV
Valido dal 26 a 18 ore il 28 a 00 ore UTC


261700Z 2618/2800 23004KT CAVOK
BECMG 2707/2710 29014KT
TEMPO 2710/2715 SCT036TCU
BECMG 2717/2719 05003KT
BECMG 2722/2800 24003KT BKN036
Nessun NOTAM noto per questo aeroporto.



MetMap, La meteo Aeronautica in un colpo d'occhio ! - Copyright ORBIFLY Dicembre 2007 - Disclaimer

ORBIFLY MET'MAP TEAM :

Programmazione e sviluppo : Alexandra Zaïnal
Concezione e sviluppo : Baudouin d'Aumeries
Co-Programmazione e sviluppo : Marc-Olivier Méhu
Supporto tecnico e logistico : Manuel Goepfert
Aiuto per la traduzione : Arnaldo La Scala

Contatto : metmap@orbifly.com




FONTI E CREDITI :

   NOAA